[[{"header":{"parameterUnit":"m.s-1","parameterCategory":1,"la1":30.2992,"la2":30.254,"lo1":-89.0895,"lo2":-89.0443,"dy":0.0025,"dx":0.0025,"nx":19,"ny":19,"refTime":"2026-03-24T03:00:00:Z","depth":0,"parameterNumber":2,"parameterNumberName":"U-component_of_WINDS"},"data":[0,0,0,-3.9051,-3.9053,-3.9138,-3.9138,-3.9275,-3.9277,0,0,0,0,0,0,0,0,0,0,0,-3.9042,-3.9043,-3.9051,-3.9054,-3.9138,-3.9138,-3.9275,-3.9277,0,0,0,0,0,0,0,0,0,0,0,-3.9041,-3.9043,-3.9045,-3.9054,-3.9138,-3.9138,-3.9274,-3.9201,0,0,0,0,0,0,0,0,0,0,-3.9114,-3.912,-3.9042,-3.9045,-3.9055,-3.9138,-3.9138,-3.9197,-3.9206,-3.9249,0,-3.929,0,-3.9286,-3.9287,-3.9288,0,0,0,-3.9042,-3.9113,-3.9122,-3.9045,-3.9056,-3.9138,-3.9097,-3.9201,-3.9211,-3.9261,-3.9292,-3.9296,-3.9288,-3.9288,-3.9289,-3.9576,-3.9577,0,0,-3.9037,-3.9065,-3.9115,-3.9129,-3.9116,-3.9094,-3.9099,-3.9207,-3.9243,-3.9292,-3.9299,-3.929,-3.929,-3.9291,-3.9574,-3.9576,0,0,0,-3.9032,-3.9063,-3.9068,-3.9124,-3.9137,-3.9097,-3.9103,-3.9238,-3.9238,-3.93,-3.9292,-3.9291,-3.9293,-3.9572,-3.9575,-3.9692,0,0,0,-3.9028,-3.9059,-3.9067,-3.9085,-3.9135,-3.9188,-3.9132,-3.923,-3.9241,-3.9291,-3.9291,-3.9294,-3.9569,-3.9573,-3.9684,-3.9742,0,0,0,-3.9031,-3.9059,-3.9077,-3.9086,-3.9123,-3.9186,-3.9191,-3.9232,-3.9237,-3.9288,-3.9295,-3.9568,-3.9572,-3.9678,-3.9731,-3.9825,0,0,0,-3.9042,-3.918,-3.9079,-3.9231,-3.9123,-3.9259,-3.919,-3.929,-3.9348,-3.9291,-3.957,-3.9574,-3.9675,-3.9724,-3.9818,-3.9907,-3.9947,0,0,-3.9231,-3.9204,-3.9291,-3.9204,-3.9364,-3.9244,-3.9423,-3.9449,-3.943,-3.9529,-3.9535,-3.9687,-3.973,-3.9823,-4.0169,-4.0202,0,0,0,-3.9361,-3.9424,-3.9461,-3.9517,-3.9542,-3.9569,-3.9566,-3.9577,-3.966,-3.9486,-3.9747,-3.9772,-3.9826,-3.9867,-3.9894,-3.9938,-3.9595,-3.9595,-3.9594,-3.9666,-3.9635,-3.9778,-3.9758,-3.9815,-3.9813,-3.9856,-3.9871,-3.9821,-3.9885,-3.9912,-4.0126,-4.0175,-4.0196,-4.0242,-3.996,-3.996,-3.9961,-3.9961,-3.9939,-4.0022,-3.9958,-4.0073,-4.0041,-4.0138,-4.0145,-4.0108,-4.0195,-4.0102,-4.0147,-4.0045,-4.0232,-4.0271,-3.9969,-3.9968,-3.9967,-3.9966,-3.9965,-4.0131,-4.0166,-4.0179,-4.026,-4.0328,-4.0305,-4.0392,-4.036,-4.0331,-4.0377,-4.0403,-4.04,-4.0393,-4.0392,-4.0393,-4.0394,-4.0395,-4.0395,-4.0396,-4.0324,-4.0335,-4.0411,-4.0454,-4.0488,-4.053,-4.0535,-4.0568,-4.0597,-4.0567,-4.0567,-4.0513,-4.0257,-4.0192,-4.0407,-4.0405,-4.0403,-4.0402,-4.0402,-4.0606,-4.0538,-4.0656,-4.0691,-4.074,-4.0811,-4.0772,-4.0844,-4.0868,-4.0913,-4.0851,-4.0669,-4.0637,-4.0615,-4.056,-4.0858,-4.0858,-4.0858,-4.0858,-4.0765,-4.0749,-4.0863,-4.0922,-4.0976,-4.0954,-4.1092,-4.11,-4.1097,-4.1111,-4.1065,-4.0992,-4.0971,-4.0952,-4.0923,-4.0871,-4.1241,-4.1241,-4.1241,-4.0936,-4.0924,-4.1044,-4.1041,-4.1079,-4.1114,-4.1242,-4.1314,-4.1298,-4.1256,-4.1121,-4.1105,-4.0986,-4.095,-4.0898,-4.0853,-4.0758,0,0]},{"header":{"parameterUnit":"m.s-1","parameterCategory":1,"la1":30.2992,"la2":30.254,"lo1":-89.0895,"lo2":-89.0443,"dy":0.0025,"dx":0.0025,"nx":19,"ny":19,"refTime":"2026-03-24T03:00:00:Z","depth":0,"parameterNumber":3,"parameterNumberName":"V-component_of_WINDS"},"data":[0,0,0,2.5961,2.5961,2.5951,2.5951,2.5917,2.5916,0,0,0,0,0,0,0,0,0,0,0,2.5954,2.5954,2.5961,2.5961,2.5951,2.5951,2.5917,2.5916,0,0,0,0,0,0,0,0,0,0,0,2.5954,2.5954,2.5953,2.5961,2.5951,2.5951,2.5917,2.5931,0,0,0,0,0,0,0,0,0,0,2.5945,2.5929,2.5954,2.5953,2.5961,2.5951,2.5951,2.5932,2.593,2.5913,0,2.5898,0,2.5907,2.5913,2.5913,0,0,0,2.5967,2.593,2.5937,2.5953,2.596,2.5951,2.5957,2.5932,2.5929,2.5911,2.5897,2.5897,2.5906,2.5913,2.5912,2.5799,2.5799,0,0,2.5968,2.5946,2.5939,2.5935,2.5939,2.5957,2.5957,2.593,2.5913,2.5897,2.5896,2.5906,2.5912,2.5912,2.58,2.5799,0,0,0,2.5965,2.5946,2.5954,2.5936,2.5936,2.5957,2.5956,2.5915,2.5919,2.5896,2.5905,2.5912,2.5911,2.5801,2.58,2.5738,0,0,0,2.5966,2.5944,2.5954,2.594,2.5936,2.5926,2.594,2.5921,2.5919,2.5905,2.5912,2.5911,2.5802,2.58,2.5742,2.5711,0,0,0,2.5958,2.5944,2.5939,2.5939,2.5934,2.5927,2.593,2.5921,2.5924,2.5913,2.5911,2.5803,2.5801,2.5745,2.5717,2.5676,0,0,0,2.5943,2.5882,2.5938,2.5874,2.5934,2.589,2.5931,2.5898,2.5881,2.5912,2.5802,2.58,2.5746,2.572,2.5679,2.5636,2.5617,0,0,2.5854,2.587,2.5835,2.5884,2.5825,2.5893,2.5824,2.5827,2.5845,2.5813,2.581,2.5741,2.5717,2.5676,2.5517,2.5502,0,0,0,2.5799,2.5773,2.5762,2.5747,2.5751,2.5751,2.5769,2.577,2.5745,2.5825,2.5716,2.5703,2.5679,2.566,2.5646,2.5627,2.579,2.5791,2.5791,2.5639,2.5668,2.5611,2.5639,2.5624,2.5645,2.5634,2.564,2.567,2.5644,2.5634,2.5535,2.5511,2.5501,2.5481,2.5615,2.5615,2.5615,2.5615,2.5511,2.5478,2.5525,2.5486,2.5517,2.5484,2.5501,2.5525,2.5497,2.5544,2.5525,2.5572,2.5483,2.5467,2.561,2.5611,2.5612,2.5612,2.5612,2.5408,2.5398,2.5404,2.5387,2.537,2.54,2.5373,2.5401,2.5427,2.5408,2.5401,2.5402,2.5405,2.5403,2.5403,2.5402,2.5402,2.5402,2.5402,2.5298,2.5308,2.5282,2.5284,2.5279,2.5276,2.5298,2.5293,2.5295,2.5317,2.5317,2.535,2.5471,2.5499,2.5396,2.5397,2.5398,2.5398,2.5399,2.5155,2.5193,2.5153,2.5149,2.5154,2.5135,2.5174,2.5162,2.5162,2.5147,2.5186,2.5271,2.5289,2.5299,2.5323,2.5181,2.5181,2.5181,2.5181,2.5067,2.5081,2.5048,2.5039,2.5034,2.5065,2.5019,2.5036,2.5058,2.506,2.5085,2.512,2.513,2.5142,2.5156,2.5178,2.5002,2.5002,2.5002,2.498,2.4995,2.495,2.4977,2.4983,2.4988,2.4945,2.4931,2.4964,2.4995,2.5061,2.5069,2.5126,2.5143,2.5172,2.5193,2.5236,0,0]}]]